| time (UTC) | temp F | wind direction | speed knots | gust knots | rain 1hr in | rain 24hr in | rain mn in | humidity % | barometer mb |
| 20260506215535 | 63 | 30 | 0.0 | 0.9 | 0.00 | 0.04 | 0.00 | 38 | 1014.0 |
| 20260506215021 | 63 | 26 | 0.0 | 0.9 | 0.00 | 0.04 | 0.00 | 37 | 1014.2 |
| 20260506214526 | 63 | 34 | 0.0 | 1.7 | 0.00 | 0.04 | 0.00 | 37 | 1014.2 |
| 20260506214051 | 63 | 23 | 0.0 | 1.7 | 0.00 | 0.04 | 0.00 | 39 | 1014.2 |
| 20260506213535 | 63 | 355 | 0.0 | 0.9 | 0.00 | 0.04 | 0.00 | 39 | 1014.2 |
| 20260506213041 | 64 | 42 | 0.0 | 1.7 | 0.00 | 0.04 | 0.00 | 39 | 1014.3 |
| 20260506212525 | 64 | 44 | 0.0 | 1.7 | 0.00 | 0.04 | 0.00 | 39 | 1014.2 |
| 20260506212030 | 64 | 113 | 0.0 | 1.7 | 0.00 | 0.04 | 0.00 | 38 | 1014.1 |
| 20260506211520 | 64 | 82 | 0.0 | 1.7 | 0.00 | 0.04 | 0.00 | 37 | 1014.2 |
| 20260506211044 | 64 | 50 | 0.0 | 0.9 | 0.00 | 0.04 | 0.00 | 39 | 1014.2 |
| 20260506210528 | 64 | 32 | 0.0 | 1.7 | 0.00 | 0.04 | 0.00 | 39 | 1014.4 |
| 20260506210054 | 64 | 305 | 0.0 | 2.6 | 0.00 | 0.04 | 0.00 | 37 | 1014.6 |
| 20260506205538 | 64 | 360 | 0.0 | 2.6 | 0.00 | 0.04 | 0.00 | 37 | 1014.5 |
| 20260506205043 | 63 | 332 | 0.0 | 3.5 | 0.00 | 0.04 | 0.00 | 39 | 1014.5 |
| 20260506204528 | 63 | 355 | 0.9 | 3.5 | 0.00 | 0.04 | 0.00 | 38 | 1014.5 |
| 20260506204033 | 63 | 39 | 0.9 | 2.6 | 0.00 | 0.04 | 0.00 | 37 | 1014.3 |
| 20260506203519 | 64 | 9 | 0.0 | 4.3 | 0.00 | 0.04 | 0.00 | 37 | 1014.6 |
| 20260506203024 | 63 | 46 | 0.0 | 4.3 | 0.00 | 0.04 | 0.00 | 38 | 1014.7 |
| 20260506202529 | 63 | 63 | 0.0 | 2.6 | 0.00 | 0.07 | 0.00 | 36 | 1014.8 |
| 20260506202033 | 64 | 71 | 0.0 | 4.3 | 0.00 | 0.07 | 0.00 | 36 | 1014.9 |
| 20260506201524 | 64 | 46 | 0.0 | 4.3 | 0.00 | 0.07 | 0.00 | 36 | 1014.7 |
| 20260506201029 | 65 | 55 | 0.0 | 0.9 | 0.00 | 0.07 | 0.00 | 36 | 1014.8 |
| 20260506200535 | 65 | 306 | 0.0 | 1.7 | 0.00 | 0.07 | 0.00 | 37 | 1015.0 |
| 20260506200019 | 65 | 46 | 0.0 | 1.7 | 0.00 | 0.07 | 0.00 | 36 | 1014.9 |
| 20260506195525 | 65 | 350 | 0.0 | 0.9 | 0.00 | 0.07 | 0.00 | 36 | 1015.1 |
| 20260506195030 | 64 | 329 | 0.0 | 0.9 | 0.00 | 0.07 | 0.00 | 39 | 1015.1 |
| 20260506194535 | 64 | 73 | 0.0 | 2.6 | 0.00 | 0.07 | 0.00 | 38 | 1015.1 |
| 20260506194020 | 64 | 34 | 0.0 | 2.6 | 0.00 | 0.07 | 0.00 | 37 | 1015.3 |
| 20260506193525 | 64 | 5 | 0.0 | 0.0 | 0.00 | 0.07 | 0.00 | 38 | 1015.2 |
| 20260506193031 | 63 | 113 | 0.0 | 2.6 | 0.00 | 0.07 | 0.00 | 42 | 1015.2 |
| 20260506192519 | 62 | 78 | 0.0 | 2.6 | 0.00 | 0.07 | 0.00 | 41 | 1015.4 |
| 20260506192024 | 62 | 69 | 0.0 | 2.6 | 0.00 | 0.07 | 0.00 | 44 | 1015.5 |
| 20260506191549 | 61 | 46 | 0.0 | 1.7 | 0.00 | 0.07 | 0.00 | 42 | 1015.5 |
| 20260506191033 | 62 | 105 | 0.0 | 1.7 | 0.00 | 0.07 | 0.00 | 41 | 1015.5 |
| 20260506190559 | 63 | 42 | 0.0 | 1.7 | 0.00 | 0.07 | 0.00 | 40 | 1015.6 |
| 20260506190023 | 65 | 74 | 0.0 | 1.7 | 0.00 | 0.07 | 0.00 | 38 | 1015.8 |
| 20260506185549 | 64 | 184 | 0.0 | 0.9 | 0.00 | 0.07 | 0.00 | 41 | 1015.8 |
| 20260506185033 | 64 | 279 | 0.0 | 0.9 | 0.00 | 0.07 | 0.00 | 39 | 1015.8 |
| 20260506184558 | 63 | 260 | 0.0 | 0.9 | 0.00 | 0.07 | 0.00 | 42 | 1016.0 |
| 20260506184021 | 64 | 360 | 0.0 | 0.9 | 0.00 | 0.07 | 0.00 | 41 | 1015.9 |
| 20260506183526 | 64 | 83 | 0.0 | 1.7 | 0.00 | 0.07 | 0.00 | 39 | 1015.9 |
| 20260506183031 | 64 | 313 | 0.0 | 1.7 | 0.00 | 0.07 | 0.00 | 41 | 1015.9 |
| 20260506182536 | 63 | 53 | 0.0 | 1.7 | 0.00 | 0.07 | 0.00 | 42 | 1015.9 |
| 20260506182042 | 62 | 274 | 0.0 | 1.7 | 0.00 | 0.07 | 0.00 | 42 | 1016.1 |
| 20260506181525 | 63 | 47 | 0.0 | 0.9 | 0.00 | 0.07 | 0.00 | 42 | 1016.1 |
| 20260506181035 | 62 | 19 | 0.0 | 0.9 | 0.00 | 0.07 | 0.00 | 44 | 1016.2 |
| 20260506180540 | 63 | 32 | 0.0 | 0.0 | 0.00 | 0.07 | 0.00 | 46 | 1016.1 |
| 20260506180024 | 63 | 188 | 0.0 | 0.0 | 0.00 | 0.07 | 0.00 | 46 | 1016.3 |
| 20260506175529 | 62 | 332 | 0.0 | 0.0 | 0.00 | 0.07 | 0.00 | 45 | 1016.2 |
| 20260506175035 | 62 | 283 | 0.0 | 3.5 | 0.00 | 0.07 | 0.00 | 45 | 1016.2 |
| 20260506174540 | 61 | 36 | 0.0 | 1.7 | 0.00 | 0.07 | 0.00 | 46 | 1016.3 |
| 20260506174025 | 62 | 66 | 0.0 | 1.7 | 0.00 | 0.07 | 0.00 | 44 | 1016.3 |
| 20260506173528 | 61 | 70 | 0.0 | 1.7 | 0.00 | 0.07 | 0.00 | 44 | 1016.3 |
| 20260506173052 | 61 | 287 | 0.0 | 1.7 | 0.00 | 0.07 | 0.00 | 45 | 1016.3 |
| 20260506172558 | 61 | 55 | 0.0 | 0.9 | 0.00 | 0.07 | 0.00 | 45 | 1016.3 |
| 20260506172021 | 61 | 108 | 0.0 | 2.6 | 0.00 | 0.07 | 0.00 | 44 | 1016.3 |
| 20260506171527 | 61 | 355 | 0.0 | 2.6 | 0.00 | 0.07 | 0.00 | 42 | 1016.4 |
| 20260506171030 | 61 | 31 | 0.0 | 0.9 | 0.00 | 0.07 | 0.00 | 44 | 1016.3 |
| 20260506170555 | 61 | 119 | 0.0 | 1.7 | 0.00 | 0.07 | 0.00 | 45 | 1016.2 |
| 20260506170038 | 61 | 355 | 0.0 | 1.7 | 0.00 | 0.07 | 0.00 | 45 | 1016.1 |
| 20260506165527 | 60 | 69 | 0.0 | 1.7 | 0.00 | 0.07 | 0.00 | 45 | 1016.0 |
| 20260506165028 | 60 | 32 | 0.0 | 1.7 | 0.00 | 0.07 | 0.00 | 46 | 1016.1 |
| 20260506164528 | 59 | 332 | 0.0 | 0.9 | 0.00 | 0.07 | 0.00 | 48 | 1015.8 |
| 20260506164033 | 58 | 76 | 0.0 | 7.0 | 0.00 | 0.07 | 0.00 | 50 | 1015.8 |
| 20260506163559 | 57 | 84 | 0.0 | 7.0 | 0.00 | 0.07 | 0.00 | 46 | 1015.8 |
| 20260506163045 | 58 | 61 | 0.0 | 6.1 | 0.00 | 0.07 | 0.00 | 46 | 1015.8 |
| 20260506162531 | 57 | 63 | 0.0 | 6.1 | 0.00 | 0.20 | 0.00 | 47 | 1015.8 |
| 20260506162034 | 57 | 360 | 0.0 | 1.7 | 0.00 | 0.20 | 0.00 | 49 | 1015.8 |
| 20260506161521 | 57 | 50 | 0.0 | 0.0 | 0.00 | 0.20 | 0.00 | 54 | 1015.6 |
| 20260506161026 | 57 | 65 | 0.0 | 0.9 | 0.00 | 0.20 | 0.00 | 53 | 1015.8 |
| 20260506160533 | 57 | 82 | 0.0 | 0.9 | 0.00 | 0.20 | 0.00 | 52 | 1015.8 |
| 20260506160019 | 57 | 61 | 0.0 | 0.9 | 0.00 | 0.20 | 0.00 | 51 | 1015.8 |
| 20260506155529 | 57 | 276 | 0.0 | 0.0 | 0.00 | 0.20 | 0.00 | 53 | 1015.6 |
| 20260506155034 | 56 | 90 | 0.0 | 0.9 | 0.00 | 0.20 | 0.00 | 54 | 1015.5 |
| 20260506154519 | 56 | 64 | 0.0 | 0.9 | 0.00 | 0.20 | 0.00 | 55 | 1015.5 |
| 20260506154023 | 55 | 82 | 0.0 | 0.9 | 0.00 | 0.20 | 0.00 | 58 | 1015.4 |
| 20260506153528 | 55 | 64 | 0.0 | 3.5 | 0.00 | 0.20 | 0.00 | 56 | 1015.3 |
| 20260506153055 | 55 | 46 | 0.0 | 3.5 | 0.00 | 0.20 | 0.00 | 55 | 1015.3 |
| 20260506152519 | 55 | 347 | 0.0 | 1.7 | 0.00 | 0.20 | 0.20 | 57 | 1015.2 |
| 20260506152022 | 54 | 53 | 0.0 | 1.7 | 0.00 | 0.20 | 0.20 | 57 | 1015.3 |
| 20260506151547 | 54 | 91 | 0.0 | 1.7 | 0.00 | 0.20 | 0.20 | 56 | 1015.2 |
| 20260506151052 | 54 | 30 | 0.0 | 0.9 | 0.00 | 0.20 | 0.20 | 58 | 1015.3 |
| 20260506150556 | 53 | 327 | 0.0 | 0.9 | 0.00 | 0.20 | 0.20 | 59 | 1015.2 |
| 20260506150039 | 53 | 66 | 0.0 | 0.0 | 0.00 | 0.20 | 0.20 | 59 | 1015.2 |
| 20260506145543 | 53 | 42 | 0.0 | 0.0 | 0.00 | 0.20 | 0.20 | 63 | 1015.3 |
| 20260506145024 | 53 | 58 | 0.0 | 0.9 | 0.00 | 0.20 | 0.20 | 61 | 1015.3 |
| 20260506144531 | 53 | 57 | 0.0 | 0.9 | 0.00 | 0.20 | 0.20 | 61 | 1015.3 |
| 20260506144037 | 53 | 64 | 0.0 | 0.9 | 0.00 | 0.20 | 0.20 | 63 | 1015.3 |
| 20260506143538 | 52 | 73 | 0.0 | 0.9 | 0.00 | 0.20 | 0.20 | 65 | 1015.3 |
| 20260506143024 | 51 | 32 | 0.0 | 0.9 | 0.00 | 0.20 | 0.20 | 65 | 1015.3 |
| 20260506142549 | 51 | 71 | 0.0 | 0.0 | 0.00 | 0.20 | 0.20 | 64 | 1015.3 |
| 20260506142031 | 51 | 71 | 0.0 | 0.0 | 0.00 | 0.20 | 0.20 | 66 | 1015.3 |
| 20260506141536 | 51 | 63 | 0.0 | 0.0 | 0.00 | 0.20 | 0.20 | 68 | 1015.3 |
| 20260506141036 | 51 | 80 | 0.0 | 0.0 | 0.00 | 0.20 | 0.20 | 71 | 1015.2 |
| 20260506140536 | 50 | 84 | 0.0 | 0.0 | 0.00 | 0.20 | 0.20 | 70 | 1015.2 |
| 20260506140042 | 50 | 78 | 0.0 | 0.0 | 0.00 | 0.20 | 0.20 | 73 | 1015.1 |
| 20260506135527 | 50 | 75 | 0.0 | 0.0 | 0.00 | 0.20 | 0.20 | 76 | 1015.1 |
| 20260506135033 | 49 | 67 | 0.0 | 0.0 | 0.00 | 0.20 | 0.20 | 77 | 1014.9 |
| 20260506134519 | 49 | 65 | 0.0 | 0.0 | 0.00 | 0.20 | 0.20 | 78 | 1014.8 |
| 20260506134029 | 48 | 77 | 0.0 | 0.0 | 0.00 | 0.20 | 0.20 | 80 | 1014.8 |
| 20260506133535 | 48 | 61 | 0.0 | 0.0 | 0.00 | 0.20 | 0.20 | 81 | 1014.9 |
| 20260506133021 | 48 | 59 | 0.0 | 0.0 | 0.00 | 0.20 | 0.20 | 83 | 1015.0 |
| 20260506132527 | 47 | 32 | 0.0 | 0.0 | 0.00 | 0.20 | 0.20 | 84 | 1015.0 |
| 20260506132051 | 47 | 50 | 0.0 | 0.0 | 0.00 | 0.20 | 0.20 | 84 | 1015.0 |
| 20260506131536 | 47 | 76 | 0.0 | 0.0 | 0.00 | 0.20 | 0.20 | 85 | 1015.1 |
| 20260506131022 | 46 | 72 | 0.0 | 0.0 | 0.00 | 0.20 | 0.20 | 86 | 1015.2 |
| 20260506130528 | 46 | 61 | 0.0 | 0.0 | 0.00 | 0.20 | 0.20 | 86 | 1015.1 |
| 20260506130033 | 46 | 85 | 0.0 | 0.0 | 0.00 | 0.20 | 0.20 | 87 | 1015.1 |
| 20260506125520 | 46 | 39 | 0.0 | 0.0 | 0.00 | 0.20 | 0.20 | 87 | 1014.9 |
| 20260506125026 | 46 | 65 | 0.0 | 0.0 | 0.00 | 0.20 | 0.20 | 87 | 1015.0 |
| 20260506124537 | 46 | 105 | 0.0 | 0.0 | 0.00 | 0.20 | 0.20 | 88 | 1015.1 |
| 20260506124023 | 46 | 13 | 0.0 | 0.0 | 0.00 | 0.20 | 0.20 | 88 | 1015.3 |
| 20260506123549 | 46 | 19 | 0.0 | 0.0 | 0.00 | 0.20 | 0.20 | 88 | 1015.2 |
| 20260506123033 | 46 | 5 | 0.0 | 0.0 | 0.00 | 0.20 | 0.20 | 88 | 1015.3 |
| 20260506122519 | 46 | 36 | 0.0 | 0.0 | 0.00 | 0.20 | 0.20 | 89 | 1015.4 |
| 20260506122025 | 46 | 355 | 0.0 | 0.0 | 0.00 | 0.20 | 0.20 | 89 | 1015.2 |
| 20260506121531 | 45 | 52 | 0.0 | 0.0 | 0.00 | 0.20 | 0.20 | 89 | 1015.1 |
| 20260506121036 | 45 | 20 | 0.0 | 0.0 | 0.00 | 0.20 | 0.20 | 90 | 1015.1 |
| 20260506120522 | 45 | 5 | 0.0 | 0.0 | 0.00 | 0.20 | 0.20 | 89 | 1015.1 |
| 20260506120028 | 45 | 63 | 0.0 | 0.0 | 0.00 | 0.20 | 0.20 | 90 | 1015.1 |
| 20260506115554 | 45 | 303 | 0.0 | 0.0 | 0.00 | 0.20 | 0.20 | 90 | 1015.2 |
| 20260506115023 | 45 | 244 | 0.0 | 0.0 | 0.00 | 0.20 | 0.20 | 90 | 1015.0 |
| 20260506114529 | 45 | 349 | 0.0 | 0.0 | 0.00 | 0.20 | 0.20 | 90 | 1015.0 |
| 20260506114036 | 45 | 325 | 0.0 | 0.0 | 0.00 | 0.20 | 0.20 | 90 | 1015.0 |
| 20260506113522 | 45 | 221 | 0.0 | 0.0 | 0.00 | 0.20 | 0.20 | 90 | 1014.9 |
| 20260506113029 | 45 | 325 | 0.0 | 0.0 | 0.00 | 0.20 | 0.20 | 90 | 1014.8 |
| 20260506112535 | 45 | 86 | 0.0 | 0.0 | 0.00 | 0.20 | 0.20 | 90 | 1014.7 |
| 20260506112021 | 45 | 275 | 0.0 | 0.0 | 0.00 | 0.20 | 0.20 | 90 | 1014.5 |
| 20260506111527 | 45 | 305 | 0.0 | 0.0 | 0.00 | 0.20 | 0.20 | 90 | 1014.2 |
| 20260506111033 | 45 | 52 | 0.0 | 0.0 | 0.00 | 0.20 | 0.20 | 90 | 1013.9 |
| 20260506110537 | 45 | 52 | 0.0 | 0.0 | 0.00 | 0.20 | 0.20 | 90 | 1013.7 |
| 20260506110026 | 45 | 46 | 0.0 | 0.0 | 0.00 | 0.20 | 0.20 | 90 | 1013.7 |
| 20260506105532 | 45 | 46 | 0.0 | 0.0 | 0.00 | 0.20 | 0.20 | 90 | 1013.8 |
| 20260506105019 | 45 | 50 | 0.0 | 0.0 | 0.00 | 0.20 | 0.20 | 90 | 1013.8 |
| 20260506104525 | 45 | 19 | 0.0 | 0.0 | 0.00 | 0.20 | 0.20 | 90 | 1013.7 |
| 20260506104031 | 45 | 19 | 0.0 | 0.0 | 0.00 | 0.20 | 0.20 | 90 | 1013.9 |
| 20260506103536 | 45 | 15 | 0.0 | 0.0 | 0.00 | 0.20 | 0.20 | 90 | 1013.9 |
| 20260506103023 | 45 | 11 | 0.0 | 0.0 | 0.00 | 0.20 | 0.20 | 91 | 1013.8 |
| 20260506102527 | 45 | 12 | 0.0 | 0.0 | 0.00 | 0.20 | 0.20 | 90 | 1013.5 |
| 20260506102034 | 45 | 342 | 0.0 | 0.0 | 0.00 | 0.20 | 0.20 | 90 | 1013.7 |
| 20260506101518 | 45 | 23 | 0.0 | 0.0 | 0.00 | 0.20 | 0.20 | 91 | 1013.5 |
| 20260506101022 | 45 | 28 | 0.0 | 0.0 | 0.00 | 0.20 | 0.20 | 91 | 1013.2 |
| 20260506100547 | 45 | 355 | 0.0 | 0.0 | 0.00 | 0.20 | 0.20 | 91 | 1013.6 |
| 20260506100035 | 45 | 17 | 0.0 | 0.0 | 0.00 | 0.20 | 0.20 | 91 | 1013.7 |
| 20260506095540 | 45 | 26 | 0.0 | 0.0 | 0.00 | 0.20 | 0.20 | 91 | 1013.2 |
| 20260506095022 | 45 | 15 | 0.0 | 0.0 | 0.00 | 0.20 | 0.20 | 91 | 1013.2 |
| 20260506094527 | 45 | 351 | 0.0 | 0.0 | 0.00 | 0.20 | 0.20 | 91 | 1013.1 |
| 20260506094032 | 45 | 55 | 0.0 | 0.0 | 0.00 | 0.20 | 0.20 | 91 | 1013.1 |
| 20260506093537 | 45 | 14 | 0.0 | 0.0 | 0.00 | 0.20 | 0.20 | 91 | 1013.2 |
| 20260506093042 | 45 | 12 | 0.0 | 0.0 | 0.00 | 0.20 | 0.20 | 91 | 1013.2 |
| 20260506092525 | 45 | 13 | 0.0 | 0.0 | 0.00 | 0.20 | 0.20 | 91 | 1013.1 |
| 20260506092029 | 45 | 325 | 0.0 | 0.0 | 0.00 | 0.20 | 0.20 | 91 | 1013.1 |
| 20260506091535 | 45 | 323 | 0.0 | 0.0 | 0.00 | 0.20 | 0.20 | 91 | 1013.1 |
| 20260506091020 | 45 | 234 | 0.0 | 0.0 | 0.00 | 0.20 | 0.20 | 91 | 1012.9 |
| 20260506090525 | 45 | 233 | 0.0 | 0.0 | 0.00 | 0.20 | 0.20 | 91 | 1012.7 |
| 20260506090032 | 44 | 45 | 0.0 | 0.0 | 0.00 | 0.20 | 0.20 | 90 | 1011.8 |
| 20260506085537 | 44 | 78 | 0.0 | 0.0 | 0.00 | 0.20 | 0.20 | 90 | 1011.2 |
| 20260506085021 | 45 | 74 | 0.0 | 0.0 | 0.00 | 0.20 | 0.20 | 90 | 1011.5 |
| 20260506084545 | 45 | 321 | 0.0 | 0.0 | 0.00 | 0.20 | 0.20 | 90 | 1011.9 |
| 20260506084030 | 45 | 99 | 0.0 | 0.0 | 0.00 | 0.20 | 0.20 | 90 | 1011.9 |
| 20260506083555 | 45 | 228 | 0.0 | 0.0 | 0.00 | 0.20 | 0.20 | 90 | 1012.5 |
| 20260506083019 | 44 | 71 | 0.0 | 0.0 | 0.00 | 0.20 | 0.20 | 90 | 1011.5 |
| 20260506082525 | 45 | 19 | 0.0 | 0.0 | 0.00 | 0.20 | 0.20 | 90 | 1011.0 |
| 20260506082030 | 45 | 35 | 0.0 | 0.0 | 0.00 | 0.20 | 0.20 | 90 | 1011.1 |
| 20260506081534 | 45 | 35 | 0.0 | 0.0 | 0.00 | 0.20 | 0.20 | 90 | 1011.0 |
| 20260506081019 | 45 | 35 | 0.0 | 0.0 | 0.00 | 0.20 | 0.20 | 90 | 1011.4 |
| 20260506080525 | 45 | 78 | 0.0 | 0.0 | 0.00 | 0.20 | 0.20 | 90 | 1011.1 |
| 20260506073021 | 45 | 53 | 0.0 | 0.0 | 0.00 | 0.20 | 0.20 | 90 | 1011.7 |
| 20260506072527 | 45 | 55 | 0.0 | 0.0 | 0.00 | 0.20 | 0.20 | 90 | 1011.8 |
| 20260506072033 | 45 | 59 | 0.0 | 0.0 | 0.00 | 0.20 | 0.20 | 90 | 1012.1 |
| 20260506071538 | 45 | 53 | 0.0 | 0.0 | 0.00 | 0.20 | 0.20 | 90 | 1012.2 |
| 20260506071023 | 45 | 29 | 0.0 | 0.0 | 0.00 | 0.20 | 0.20 | 90 | 1012.6 |
| 20260506070528 | 45 | 29 | 0.0 | 0.0 | 0.00 | 0.20 | 0.20 | 90 | 1012.6 |
| 20260506062037 | 45 | 19 | 0.0 | 0.0 | 0.00 | 0.20 | 0.20 | 89 | 1012.4 |
| 20260506061521 | 45 | 19 | 0.0 | 0.0 | 0.00 | 0.20 | 0.20 | 89 | 1012.6 |
| 20260506061048 | 45 | 72 | 0.0 | 0.0 | 0.00 | 0.20 | 0.20 | 89 | 1012.5 |
| 20260506060536 | 45 | 72 | 0.0 | 0.0 | 0.00 | 0.20 | 0.20 | 89 | 1012.6 |
| 20260506051026 | 45 | 64 | 0.0 | 0.0 | 0.00 | 0.20 | 0.20 | 89 | 1011.4 |
| 20260506050551 | 45 | 82 | 0.0 | 0.0 | 0.01 | 0.20 | 0.20 | 89 | 1011.3 |
| 20260506045048 | 45 | 49 | 0.0 | 0.0 | 0.01 | 0.20 | 0.20 | 89 | 1011.5 |
| 20260506044553 | 45 | 61 | 0.0 | 0.0 | 0.01 | 0.20 | 0.20 | 89 | 1011.3 |
| 20260506044056 | 45 | 25 | 0.0 | 0.0 | 0.01 | 0.20 | 0.20 | 89 | 1011.4 |
| 20260506043521 | 45 | 71 | 0.0 | 0.0 | 0.01 | 0.20 | 0.20 | 89 | 1011.2 |
| 20260506043026 | 45 | 55 | 0.0 | 0.0 | 0.01 | 0.20 | 0.20 | 88 | 1011.4 |
| 20260506042530 | 45 | 36 | 0.0 | 0.0 | 0.01 | 0.20 | 0.20 | 88 | 1011.4 |
| 20260506042036 | 45 | 68 | 0.0 | 0.0 | 0.01 | 0.20 | 0.20 | 88 | 1011.2 |
| 20260506041540 | 45 | 74 | 0.0 | 0.0 | 0.01 | 0.20 | 0.20 | 88 | 1011.1 |
| 20260506041023 | 45 | 319 | 0.0 | 0.9 | 0.01 | 0.20 | 0.20 | 88 | 1011.0 |
| 20260506040528 | 45 | 60 | 0.0 | 0.0 | 0.00 | 0.19 | 0.19 | 88 | 1010.8 |
| 20260506040033 | 45 | 81 | 0.0 | 0.0 | 0.00 | 0.19 | 0.19 | 88 | 1010.8 |
| 20260506035558 | 45 | 22 | 0.0 | 0.0 | 0.00 | 0.19 | 0.19 | 88 | 1011.1 |
| 20260506035022 | 45 | 59 | 0.0 | 0.0 | 0.00 | 0.19 | 0.19 | 89 | 1011.1 |
| 20260506034530 | 45 | 65 | 0.0 | 0.0 | 0.00 | 0.19 | 0.19 | 89 | 1011.0 |
| 20260506034035 | 45 | 45 | 0.0 | 0.0 | 0.00 | 0.19 | 0.19 | 89 | 1011.0 |
| 20260506033521 | 45 | 71 | 0.0 | 0.9 | 0.00 | 0.19 | 0.19 | 89 | 1011.3 |
| 20260506033025 | 45 | 71 | 0.0 | 0.9 | 0.00 | 0.19 | 0.19 | 89 | 1011.2 |
| 20260506032530 | 45 | 67 | 0.0 | 0.0 | 0.00 | 0.19 | 0.19 | 89 | 1011.3 |
| 20260506032036 | 45 | 67 | 0.0 | 1.7 | 0.00 | 0.19 | 0.19 | 89 | 1011.4 |
| 20260506031521 | 45 | 39 | 0.0 | 1.7 | 0.00 | 0.19 | 0.19 | 89 | 1011.4 |
| 20260506031026 | 45 | 81 | 0.0 | 0.9 | 0.00 | 0.19 | 0.19 | 89 | 1010.9 |
| 20260506030531 | 45 | 78 | 0.0 | 0.9 | 0.00 | 0.19 | 0.19 | 89 | 1010.8 |
| 20260506030036 | 45 | 355 | 0.0 | 0.9 | 0.00 | 0.19 | 0.19 | 89 | 1010.7 |
| 20260506025526 | 45 | 59 | 0.0 | 0.0 | 0.00 | 0.19 | 0.19 | 89 | 1010.4 |
| 20260506025031 | 45 | 39 | 0.0 | 0.9 | 0.00 | 0.19 | 0.19 | 89 | 1010.6 |
| 20260506024556 | 45 | 22 | 0.0 | 0.9 | 0.00 | 0.19 | 0.19 | 89 | 1010.7 |
| 20260506024020 | 46 | 63 | 0.0 | 0.0 | 0.00 | 0.19 | 0.19 | 89 | 1010.6 |
| 20260506023526 | 46 | 84 | 0.0 | 0.9 | 0.00 | 0.19 | 0.19 | 89 | 1010.4 |
| 20260506023051 | 46 | 64 | 0.0 | 0.9 | 0.00 | 0.19 | 0.19 | 89 | 1010.4 |
| 20260506022535 | 46 | 41 | 0.0 | 0.9 | 0.00 | 0.19 | 0.19 | 89 | 1010.4 |
| 20260506022019 | 46 | 53 | 0.0 | 0.0 | 0.00 | 0.19 | 0.19 | 89 | 1010.3 |
| 20260506021525 | 46 | 360 | 0.0 | 0.9 | 0.00 | 0.19 | 0.19 | 89 | 1010.0 |
| 20260506021029 | 46 | 32 | 0.0 | 0.9 | 0.00 | 0.19 | 0.19 | 89 | 1010.3 |
| 20260506020535 | 46 | 59 | 0.0 | 0.9 | 0.00 | 0.19 | 0.19 | 89 | 1010.1 |
| 20260506020041 | 46 | 15 | 0.0 | 0.0 | 0.00 | 0.19 | 0.19 | 89 | 1010.4 |
| 20260506015525 | 46 | 13 | 0.0 | 0.0 | 0.00 | 0.19 | 0.19 | 89 | 1010.2 |
| 20260506015034 | 46 | 46 | 0.0 | 0.9 | 0.00 | 0.19 | 0.19 | 89 | 1009.9 |
| 20260506014520 | 46 | 69 | 0.0 | 0.0 | 0.00 | 0.19 | 0.19 | 89 | 1010.1 |
| 20260506014026 | 46 | 42 | 0.0 | 0.9 | 0.00 | 0.19 | 0.19 | 89 | 1009.7 |
| 20260506013540 | 46 | 94 | 0.0 | 0.0 | 0.00 | 0.19 | 0.19 | 89 | 1009.7 |
| 20260506013035 | 46 | 40 | 0.0 | 0.0 | 0.00 | 0.19 | 0.19 | 89 | 1009.5 |
| 20260506012519 | 47 | 33 | 0.0 | 0.0 | 0.00 | 0.19 | 0.19 | 89 | 1009.4 |
| 20260506012023 | 46 | 32 | 0.0 | 0.0 | 0.00 | 0.19 | 0.19 | 89 | 1009.2 |
| 20260506011528 | 47 | 40 | 0.0 | 0.0 | 0.00 | 0.19 | 0.19 | 89 | 1009.3 |
| 20260506011036 | 47 | 41 | 0.0 | 0.0 | 0.00 | 0.19 | 0.19 | 89 | 1009.3 |
| 20260506010541 | 47 | 38 | 0.0 | 0.0 | 0.00 | 0.19 | 0.19 | 89 | 1009.5 |
| 20260506010025 | 47 | 38 | 0.0 | 0.0 | 0.00 | 0.19 | 0.19 | 89 | 1009.0 |
| 20260506005550 | 47 | 34 | 0.0 | 0.0 | 0.00 | 0.19 | 0.19 | 89 | 1008.8 |
| 20260506005018 | 46 | 360 | 0.0 | 0.9 | 0.00 | 0.19 | 0.19 | 89 | 1009.0 |
| 20260506004028 | 46 | 34 | 0.0 | 0.9 | 0.00 | 0.19 | 0.19 | 89 | 1009.2 |
| 20260506003533 | 47 | 72 | 0.0 | 0.9 | 0.00 | 0.19 | 0.19 | 89 | 1009.0 |
| 20260506003019 | 46 | 32 | 0.0 | 1.7 | 0.01 | 0.19 | 0.19 | 89 | 1008.9 |
| 20260506002522 | 46 | 59 | 0.0 | 1.7 | 0.01 | 0.19 | 0.19 | 89 | 1008.6 |
| 20260506002029 | 46 | 48 | 0.0 | 1.7 | 0.01 | 0.19 | 0.19 | 89 | 1008.8 |
| 20260506001554 | 46 | 70 | 0.0 | 1.7 | 0.01 | 0.19 | 0.19 | 89 | 1008.7 |
| 20260506001059 | 46 | 91 | 0.0 | 3.5 | 0.01 | 0.19 | 0.19 | 89 | 1008.7 |
| 20260506000542 | 47 | 75 | 0.0 | 3.5 | 0.01 | 0.19 | 0.19 | 89 | 1008.7 |
| 20260506000047 | 47 | 36 | 0.0 | 1.7 | 0.01 | 0.19 | 0.19 | 88 | 1008.7 |
| 20260505235530 | 47 | 46 | 0.0 | 0.0 | 0.01 | 0.19 | 0.19 | 88 | 1008.7 |
| 20260505235036 | 47 | 44 | 0.0 | 0.0 | 0.01 | 0.19 | 0.19 | 88 | 1008.8 |
| 20260505234542 | 47 | 73 | 0.0 | 0.0 | 0.01 | 0.19 | 0.19 | 88 | 1008.4 |
| 20260505234026 | 47 | 51 | 0.0 | 0.9 | 0.01 | 0.19 | 0.19 | 88 | 1008.7 |
| 20260505233535 | 47 | 36 | 0.0 | 0.9 | 0.01 | 0.19 | 0.19 | 88 | 1008.5 |
| 20260505233041 | 47 | 40 | 0.0 | 0.9 | 0.00 | 0.18 | 0.18 | 88 | 1008.5 |
| 20260505232524 | 47 | 36 | 0.0 | 0.9 | 0.00 | 0.18 | 0.18 | 88 | 1008.5 |
| 20260505232030 | 47 | 93 | 0.0 | 1.7 | 0.00 | 0.18 | 0.18 | 88 | 1008.5 |
| 20260505231534 | 47 | 21 | 0.0 | 1.7 | 0.00 | 0.18 | 0.18 | 87 | 1008.5 |
| 20260505231020 | 47 | 83 | 0.0 | 1.7 | 0.00 | 0.18 | 0.18 | 87 | 1008.2 |
| 20260505230526 | 47 | 55 | 0.0 | 1.7 | 0.00 | 0.18 | 0.18 | 87 | 1008.4 |
| 20260505230031 | 47 | 63 | 0.0 | 0.9 | 0.00 | 0.18 | 0.18 | 87 | 1008.3 |
| 20260505225535 | 47 | 53 | 0.0 | 0.9 | 0.00 | 0.18 | 0.18 | 87 | 1008.3 |
| 20260505225020 | 47 | 67 | 0.0 | 1.7 | 0.00 | 0.18 | 0.18 | 87 | 1008.5 |
| 20260505224544 | 47 | 77 | 0.0 | 2.6 | 0.00 | 0.18 | 0.18 | 87 | 1008.6 |
| 20260505224030 | 47 | 44 | 0.0 | 2.6 | 0.01 | 0.18 | 0.18 | 86 | 1008.6 |
| 20260505223519 | 47 | 298 | 0.0 | 2.6 | 0.01 | 0.18 | 0.18 | 86 | 1008.4 |
| 20260505223024 | 47 | 70 | 0.0 | 2.6 | 0.01 | 0.18 | 0.18 | 86 | 1008.4 |
| 20260505222528 | 47 | 40 | 0.0 | 7.8 | 0.02 | 0.18 | 0.18 | 85 | 1008.1 |
| 20260505222035 | 47 | 64 | 0.0 | 7.8 | 0.02 | 0.18 | 0.18 | 85 | 1008.3 |
| 20260505221520 | 47 | 328 | 0.0 | 4.3 | 0.02 | 0.18 | 0.18 | 84 | 1008.5 |
| 20260505221025 | 47 | 53 | 0.0 | 4.3 | 0.02 | 0.18 | 0.18 | 84 | 1008.4 |
| 20260505220530 | 47 | 48 | 0.0 | 2.6 | 0.02 | 0.18 | 0.18 | 85 | 1008.3 |
| 20260505220036 | 47 | 35 | 0.0 | 1.7 | 0.02 | 0.18 | 0.18 | 84 | 1008.6 |